星链-1764 (STARLINK-1764 )

导读

STARLINK-1764是美国SpaceX公司星链(Starlink)星座中的一颗卫星,于2020年9月3日发射升空。星链计划旨在通过构建近地轨道卫星星座,为全球提供低成本、低延迟的高速卫星互联网接入服务。作为星链星座的组成部分,该卫星运行在近地轨道,支撑全球范围的宽带网络覆盖,不过大规模星链星座的部署也引发了天文观测、太空交通安全等方面的争议。

Basic Information
目录编号:
46343
目录名称:
STARLINK-1764
国际标识:
2020-062U
轨道中心:
EARTH
卫星名称:
星链-1764
卫星全名:
星链-1764 (STARLINK-1764 )
卫星状态:
已陨落 最后检测时间 2026-06-15
发射日期:
2020-09-03 UTC
国别 :
美国 (US)
星等 :
--
Orbit Information
数据来源 国际轨道数据
星历时间: 2026-06-15T19:27:49+0800
3天前
查看轨道信息
半长轴: 6538.396km
偏心率: 0.0005818
轨道倾角: 53.012°
近地点辐角 323.282°
升交点赤经 183.571°
平近点角 36.783°
近地点: 156.454km
远地点: 164.064km
周期: 87.693分钟
每日圈数: 16.420865
Detailed Information
固有亮度:
5
最大亮度:
2.5
卫星平台:
Starlink V1.0
覆盖范围:
全球
运营商:
太空探索技术公司
运营商所在国:
美国
制造商(研发单位):
太空探索技术公司
制造商所在国:
美国
使用方式:
暂无
Satellite Introduction
星链(Starlink)计划是由太空探索技术公司(SpaceX)提出的一个巨型低轨卫星互联网星座项目,计划在2019年至2024年间在太空搭建由约1.2万颗卫星组成的“星链”网络,其中1584颗将部署在地球上空550千米处的近地轨道,并从2020年开始工作。该卫星仍在工作。